Home > Weather > Maldonado > Past weeks

Flag for Uruguay Past Weather in Maldonado, Uruguay — Yesterday and Last 2 Weeks

Now
55 °F

Clear.


Feels Like: 52 °F
Forecast: 55 / 60 °F
Wind: 12 mph from Southeast

Location: Capitan Corbeta

Current Time: May 27, 2016 at 9:12:11 PM

Latest Report: May 27, 2016 at 8:00 PM


Visibility: 10 mi

Pressure: 30.36 "Hg

Humidity: 77%

Dew Point: 48 °F

Location of MaldonadoLocation

Past Weather in Maldonado — Graph

°F

Maldonado Temperature Yesterday

Maximum temperature yesterday: 55 °F (at 6:00 AM)
Minimum temperature yesterday: 46 °F (at 12:00 AM)
Average temperature yesterday: 52 °F

High & Low Weather Summary for the Past Weeks

 TemperatureHumidityPressure
High64 °F (May 14, 1:00 PM)100% (May 24, 2:00 AM)30.42 "Hg (May 24, 2:00 AM)
Low41 °F (May 14, 1:00 AM)52% (May 24, 3:00 PM)29.74 "Hg (May 15, 2:00 PM)
Average52 °F81%30.18 "Hg
* Reported May 12 8:00 PM — May 27 8:00 PM, Maldonado, Weather by CustomWeather, © 2016

Note: Actual official high and low records may vary slightly from our data, if they occured in-between our weather recording intervals... More about our weather records

Advertising

Maldonado Weather History for the Previous 24 Hours

Scroll right to see more
 ConditionsComfort  
Time TempWeatherWind HumidityBarometerVisibility
8:00 PM
Fri, May 27
55 °FClear.12 mph77%30.36 "Hg10 mi
7:00 PM55 °FClear.12 mph77%30.36 "Hg10 mi
6:00 PM55 °FClear.10 mph77%30.33 "Hg10 mi
5:00 PM57 °FClear.10 mph72%30.33 "Hg10 mi
4:00 PM59 °FSunny.13 mph68%30.33 "Hg10 mi
3:00 PM61 °FPartly sunny.12 mph72%30.33 "HgN/A
2:00 PM61 °FPassing clouds.13 mph68%30.33 "HgN/A
1:00 PM61 °FPartly sunny.10 mph72%30.33 "HgN/A
12:00 PM59 °FPartly sunny.15 mph77%30.33 "HgN/A
11:00 AM59 °FBroken clouds.17 mph82%30.33 "HgN/A
10:00 AM57 °FBroken clouds.15 mph82%30.33 "HgN/A
9:00 AM55 °FPartly sunny.18 mph88%30.30 "HgN/A
8:00 AM55 °FPartly sunny.14 mph88%30.27 "HgN/A
7:00 AM55 °FLow clouds.18 mph88%30.27 "HgN/A
5:00 AM55 °FLow clouds.13 mph88%30.24 "HgN/A
4:00 AM55 °FLow clouds.8 mph88%30.24 "HgN/A
3:00 AM55 °FLow clouds.9 mph88%30.24 "HgN/A
2:00 AM55 °FLow clouds.6 mph88%30.27 "Hg6 mi
1:00 AM55 °FLow clouds.7 mph88%30.27 "HgN/A
12:00 AM55 °FLow clouds.7 mph88%30.27 "HgN/A
11:00 PM
Thu, May 26
54 °FLow clouds.5 mph88%30.27 "HgN/A
10:00 PM54 °FLow clouds.8 mph88%30.27 "HgN/A
9:00 PM54 °FLow clouds.8 mph88%30.27 "HgN/A
Weather by CustomWeather, © 2016

See weather overviewHow to use our weather pages